Flag for Australia Weather past 2 weeks in Perth, Western Australia, Australia

Now
50 °F

Clear.


Feels Like: 47 °F
Forecast: 50 / 67 °F
Wind: 7 mph from East

Location: Belmont Perth Airport

Current Time: May 29, 2015 at 3:24:18 AM

Latest Report: May 29, 2015 at 2:30 AM


Visibility: 10 mi

Pressure: 30.27 "Hg

Humidity: 71%

Dew point: 41 °F

Location of PerthLocation

Historic Weather in Perth — Graph

°F

Perth temperature yesterday

Maximum temperature yesterday: 64 °F (at 2:00 PM)
Minimum temperature yesterday: 39 °F (at 6:00 AM)
Average temperature yesterday: 52 °F

Past Weeks' High & Low Weather Summary

 TemperatureHumidityPressure
High79 °F (May 14, 2:30 PM)100% (May 17, 2:30 AM)30.42 "Hg (May 17, 2:30 AM)
Low39 °F (May 28, 6:00 AM)7% (May 16, 1:00 AM)29.62 "Hg (May 17, 12:30 PM)
Average58 °F67%30.13 "Hg
* Reported May 14 2:00 AM — May 29 2:00 AM, Perth, Weather by CustomWeather, © 2015

Note: Actual official high and low records may vary slightly from our data, if they occured in-between our weather recording intervals... More about our weather records

Advertising

Perth weather history for previous 24 hours

 ConditionsComfort  
Time TempWeatherWind HumidityBarometerVisibility
2:00 AM
Fri, May 29
50 °FClear.10 mph71%30.27 "Hg10 mi
1:30 AM48 °FClear.6 mph76%30.27 "Hg10 mi
1:00 AM48 °FClear.6 mph76%30.27 "Hg10 mi
12:30 AM48 °FClear.2 mph76%30.27 "Hg10 mi
12:00 AM52 °FClear.2 mph67%30.27 "Hg10 mi
11:30 PM
Thu, May 28
52 °FClear.6 mph62%30.27 "Hg10 mi
11:00 PM52 °FClear.8 mph67%30.27 "Hg10 mi
10:30 PM52 °FClear.8 mph67%30.27 "Hg10 mi
10:00 PM52 °FClear.10 mph67%30.27 "Hg10 mi
9:30 PM48 °FClear.5 mph76%30.27 "Hg10 mi
9:00 PM46 °FClear.2 mph87%30.27 "Hg10 mi
8:30 PM46 °FClear.2 mph87%30.24 "Hg10 mi
8:00 PM46 °FClear.No wind87%30.24 "Hg10 mi
7:30 PM48 °FClear.2 mph82%30.24 "Hg10 mi
7:00 PM50 °FClear.5 mph82%30.21 "Hg10 mi
6:30 PM52 °FClear.6 mph77%30.21 "Hg10 mi
6:00 PM54 °FClear.5 mph72%30.21 "Hg10 mi
5:30 PM57 °FClear.5 mph63%30.18 "Hg10 mi
5:00 PM61 °FClear.6 mph55%30.18 "Hg10 mi
4:30 PM64 °FClear.9 mph46%30.18 "Hg10 mi
4:00 PM64 °FSunny.5 mph43%30.18 "Hg10 mi
3:30 PM64 °FSunny.8 mph43%30.18 "Hg10 mi
3:00 PM64 °FSunny.8 mph43%30.18 "Hg10 mi
2:30 PM64 °FPassing clouds.10 mph43%30.18 "HgN/A
2:00 PM64 °FPassing clouds.10 mph46%30.18 "HgN/A
1:00 PM63 °FPartly sunny.9 mph52%30.21 "HgN/A
12:30 PM63 °FBroken clouds.8 mph52%30.21 "HgN/A
12:00 PM63 °FBroken clouds.10 mph49%30.24 "HgN/A
11:30 AM63 °FBroken clouds.15 mph52%30.24 "HgN/A
11:00 AM59 °FPartly sunny.16 mph59%30.24 "HgN/A
10:30 AM59 °FSunny.10 mph59%30.24 "Hg10 mi
10:00 AM57 °FSunny.8 mph63%30.24 "Hg10 mi
9:30 AM57 °FSunny.9 mph63%30.24 "Hg10 mi
9:00 AM55 °FSunny.No wind67%30.24 "Hg10 mi
8:30 AM52 °FSunny.6 mph72%30.24 "Hg10 mi
8:00 AM48 °FSunny.6 mph76%30.24 "Hg10 mi
7:30 AM43 °FSunny.No wind87%30.21 "Hg10 mi
7:00 AM45 °FSunny.No wind87%30.21 "Hg10 mi
6:30 AM45 °FSunny.1 mph81%30.21 "Hg10 mi
6:00 AM39 °FClear.6 mph93%30.18 "Hg10 mi
5:30 AM41 °FClear.6 mph93%30.18 "Hg10 mi
5:00 AM41 °FClear.7 mph93%30.18 "Hg10 mi
4:30 AM45 °FQuite cool.6 mph81%30.18 "HgN/A
4:00 AM45 °FClear.6 mph81%30.18 "Hg10 mi
3:30 AM46 °FClear.6 mph76%30.18 "Hg10 mi
3:00 AM46 °FClear.5 mph76%30.18 "Hg10 mi
Weather by CustomWeather, © 2015

See weather overviewHow to use our weather pages